SL-16 DEB

基本信息
目录编号:
39852
目录名称:
SL-16 DEB
国际标识:
1992-093LE
轨道中心:
EARTH
物体状态:
在轨
发射日期:
1992-12-25 UTC
轨道信息
数据来源: 国际轨道数据
星历时间: 2026-09-11T17:37:05+0800
半长轴: 7052.971km
偏心率: 0.0004604
轨道倾角: 70.998°
近地点辐角: 264.855°
升交点赤经: 304.383°
平近点角: 95.207°
近地点: 671.586km
远地点: 678.082km
周期: 98.247分钟
每日圈数: 14.656985
详细信息
发射场:
TTMTR
轨道高度:
LEO
数据来源:
AOE Integration Group
参考系:
TEME
时间系统:
UTC
历元类型:
SGP4
2D轨道图
3D轨道图
轨道高度分析图
轨道倾角分析图
轨道综合分析图
查看轨道综合分析图